Time,TemperatureF,DewpointF,PressureIn,WindDirection,WindDirectionDegrees,WindSpeedMPH,WindSpeedGustMPH,Humidity,HourlyPrecipIn,Conditions,Clouds,dailyrainin,SoftwareType,DateUTC
2013-10-05 00:03:00,44.0,26.0,30.33,SW,217,3.0,12.0,50,0.00,,,0.00,weatherlink.com 1.10,2013-10-05 06:03:00,
2013-10-05 00:18:00,44.1,26.0,30.32,SE,140,1.0,18.0,49,0.00,,,0.00,weatherlink.com 1.10,2013-10-05 06:18:00,
2013-10-05 00:33:00,43.6,26.0,30.32,SSE,161,3.0,12.0,51,0.00,,,0.00,weatherlink.com 1.10,2013-10-05 06:33:00,
2013-10-05 00:48:00,43.4,27.0,30.31,SE,140,5.0,19.0,53,0.00,,,0.00,weatherlink.com 1.10,2013-10-05 06:48:00,
2013-10-05 01:03:00,43.3,27.0,30.31,SE,136,6.0,18.0,53,0.00,,,0.00,weatherlink.com 1.10,2013-10-05 07:03:00,
2013-10-05 01:18:00,43.2,27.0,30.31,SE,141,3.0,19.0,53,0.00,,,0.00,weatherlink.com 1.10,2013-10-05 07:18:00,
2013-10-05 01:33:00,43.3,27.0,30.30,SE,132,9.0,29.0,54,0.00,,,0.00,weatherlink.com 1.10,2013-10-05 07:33:00,
2013-10-05 01:49:00,43.2,27.0,30.30,SSE,147,7.0,28.0,53,0.00,,,0.00,weatherlink.com 1.10,2013-10-05 07:49:00,
2013-10-05 02:03:00,42.7,27.0,30.30,SE,140,5.0,24.0,55,0.00,,,0.00,weatherlink.com 1.10,2013-10-05 08:03:00,
2013-10-05 02:18:00,42.5,27.0,30.30,SE,136,10.0,17.0,55,0.00,,,0.00,weatherlink.com 1.10,2013-10-05 08:18:00,
2013-10-05 02:33:00,42.6,27.0,30.30,ESE,114,18.0,22.0,54,0.00,,,0.00,weatherlink.com 1.10,2013-10-05 08:33:00,
2013-10-05 02:48:00,42.7,27.0,30.30,SE,130,6.0,29.0,54,0.00,,,0.00,weatherlink.com 1.10,2013-10-05 08:48:00,
2013-10-05 03:04:00,41.9,28.0,30.30,SSE,153,5.0,20.0,58,0.00,,,0.00,weatherlink.com 1.10,2013-10-05 09:04:00,
2013-10-05 03:18:00,42.0,27.0,30.29,SSE,159,10.0,16.0,56,0.00,,,0.00,weatherlink.com 1.10,2013-10-05 09:18:00,
2013-10-05 03:33:00,41.4,27.0,30.27,ESE,109,18.0,18.0,58,0.00,,,0.00,weatherlink.com 1.10,2013-10-05 09:33:00,
2013-10-05 03:48:00,41.3,27.0,30.28,SE,142,3.0,16.0,58,0.00,,,0.00,weatherlink.com 1.10,2013-10-05 09:48:00,
2013-10-05 04:03:00,41.3,28.0,30.27,ESE,114,25.0,25.0,59,0.00,,,0.00,weatherlink.com 1.10,2013-10-05 10:03:00,
2013-10-05 04:18:00,41.7,27.0,30.28,SE,127,6.0,25.0,57,0.00,,,0.00,weatherlink.com 1.10,2013-10-05 10:18:00,
2013-10-05 04:33:00,41.3,27.0,30.28,SSE,150,9.0,24.0,58,0.00,,,0.00,weatherlink.com 1.10,2013-10-05 10:33:00,
2013-10-05 04:48:00,40.8,28.0,30.29,South,169,6.0,25.0,60,0.00,,,0.00,weatherlink.com 1.10,2013-10-05 10:48:00,
2013-10-05 05:03:00,40.6,28.0,30.28,SE,134,2.0,25.0,60,0.00,,,0.00,weatherlink.com 1.10,2013-10-05 11:03:00,
2013-10-05 05:18:00,40.5,28.0,30.28,SE,124,7.0,18.0,62,0.00,,,0.00,weatherlink.com 1.10,2013-10-05 11:18:00,
2013-10-05 05:33:00,40.3,28.0,30.28,ESE,121,9.0,19.0,61,0.00,,,0.00,weatherlink.com 1.10,2013-10-05 11:33:00,
2013-10-05 05:48:00,40.1,27.0,30.27,SE,134,8.0,17.0,61,0.00,,,0.00,weatherlink.com 1.10,2013-10-05 11:48:00,
2013-10-05 06:03:00,40.4,28.0,30.27,ESE,103,23.0,23.0,61,0.00,,,0.00,weatherlink.com 1.10,2013-10-05 12:03:00,
2013-10-05 06:18:00,40.4,27.0,30.28,SE,130,5.0,23.0,60,0.00,,,0.00,weatherlink.com 1.10,2013-10-05 12:18:00,
2013-10-05 06:33:00,40.8,27.0,30.28,SE,146,4.0,18.0,59,0.00,,,0.00,weatherlink.com 1.10,2013-10-05 12:33:00,
2013-10-05 06:48:00,41.2,27.0,30.29,SE,146,8.0,21.0,57,0.00,,,0.00,weatherlink.com 1.10,2013-10-05 12:48:00,
2013-10-05 07:03:00,40.9,27.0,30.29,SSE,150,6.0,12.0,58,0.00,,,0.00,weatherlink.com 1.10,2013-10-05 13:03:00,
2013-10-05 07:18:00,41.2,27.0,30.28,SE,126,8.0,23.0,58,0.00,,,0.00,weatherlink.com 1.10,2013-10-05 13:18:00,
2013-10-05 07:33:00,40.9,27.0,30.28,ESE,122,10.0,16.0,58,0.00,,,0.00,weatherlink.com 1.10,2013-10-05 13:33:00,
2013-10-05 07:48:00,41.2,27.0,30.29,SSE,149,23.0,23.0,57,0.00,,,0.00,weatherlink.com 1.10,2013-10-05 13:48:00,
2013-10-05 08:03:00,41.2,27.0,30.28,SE,145,3.0,17.0,57,0.00,,,0.00,weatherlink.com 1.10,2013-10-05 14:03:00,
2013-10-05 08:18:00,41.7,27.0,30.29,SE,137,7.0,20.0,57,0.00,,,0.00,weatherlink.com 1.10,2013-10-05 14:18:00,
2013-10-05 08:33:00,42.1,27.0,30.28,ESE,123,11.0,20.0,56,0.00,,,0.00,weatherlink.com 1.10,2013-10-05 14:33:00,
2013-10-05 08:48:00,42.5,27.0,30.29,ESE,122,4.0,22.0,55,0.00,,,0.00,weatherlink.com 1.10,2013-10-05 14:48:00,
2013-10-05 09:03:00,43.1,27.0,30.30,SE,137,5.0,22.0,53,0.00,,,0.00,weatherlink.com 1.10,2013-10-05 15:03:00,
2013-10-05 09:18:00,43.5,27.0,30.30,SE,139,7.0,23.0,53,0.00,,,0.00,weatherlink.com 1.10,2013-10-05 15:18:00,
2013-10-05 09:33:00,44.1,28.0,30.29,SE,128,8.0,24.0,54,0.00,,,0.00,weatherlink.com 1.10,2013-10-05 15:33:00,
2013-10-05 09:48:00,44.6,28.0,30.29,East,90,11.0,28.0,52,0.00,,,0.00,weatherlink.com 1.10,2013-10-05 15:48:00,
2013-10-05 10:04:00,45.4,28.0,30.28,SSE,157,9.0,27.0,51,0.00,,,0.00,weatherlink.com 1.10,2013-10-05 16:04:00,
2013-10-05 10:19:00,45.9,28.0,30.29,SE,139,19.0,21.0,50,0.00,,,0.00,weatherlink.com 1.10,2013-10-05 16:19:00,
2013-10-05 10:34:00,45.8,28.0,30.29,SSE,151,8.0,24.0,51,0.00,,,0.00,weatherlink.com 1.10,2013-10-05 16:34:00,
2013-10-05 10:49:00,45.8,28.0,30.28,SE,143,7.0,23.0,50,0.00,,,0.00,weatherlink.com 1.10,2013-10-05 16:49:00,
2013-10-05 11:04:00,47.2,29.0,30.29,SE,138,8.0,21.0,50,0.00,,,0.00,weatherlink.com 1.10,2013-10-05 17:04:00,
2013-10-05 11:19:00,46.9,29.0,30.30,SE,131,11.0,25.0,51,0.00,,,0.00,weatherlink.com 1.10,2013-10-05 17:19:00,
2013-10-05 11:34:00,47.6,29.0,30.28,South,172,9.0,23.0,48,0.00,,,0.00,weatherlink.com 1.10,2013-10-05 17:34:00,
2013-10-05 11:49:00,48.0,29.0,30.27,SE,138,7.0,19.0,49,0.00,,,0.00,weatherlink.com 1.10,2013-10-05 17:49:00,
2013-10-05 12:04:00,50.7,30.0,30.26,SSE,150,20.0,23.0,45,0.00,,,0.00,weatherlink.com 1.10,2013-10-05 18:04:00,
2013-10-05 12:19:00,51.0,29.0,30.26,SSE,159,7.0,25.0,43,0.00,,,0.00,weatherlink.com 1.10,2013-10-05 18:19:00,
2013-10-05 12:34:00,51.3,30.0,30.26,SE,129,10.0,25.0,44,0.00,,,0.00,weatherlink.com 1.10,2013-10-05 18:34:00,
2013-10-05 12:49:00,50.9,29.0,30.25,SSE,151,7.0,24.0,44,0.00,,,0.00,weatherlink.com 1.10,2013-10-05 18:49:00,
2013-10-05 13:04:00,52.5,30.0,30.26,SSE,155,14.0,23.0,42,0.00,,,0.00,weatherlink.com 1.10,2013-10-05 19:04:00,
2013-10-05 13:19:00,51.6,29.0,30.25,SSE,166,9.0,21.0,42,0.00,,,0.00,weatherlink.com 1.10,2013-10-05 19:19:00,
2013-10-05 13:34:00,52.2,30.0,30.25,SSE,152,6.0,29.0,42,0.00,,,0.00,weatherlink.com 1.10,2013-10-05 19:34:00,
2013-10-05 13:49:00,52.1,29.0,30.23,SE,144,5.0,18.0,41,0.00,,,0.00,weatherlink.com 1.10,2013-10-05 19:49:00,
2013-10-05 14:04:00,52.5,29.0,30.23,SSE,163,8.0,26.0,40,0.00,,,0.00,weatherlink.com 1.10,2013-10-05 20:04:00,
2013-10-05 14:19:00,53.3,29.0,30.22,SE,136,14.0,18.0,39,0.00,,,0.00,weatherlink.com 1.10,2013-10-05 20:19:00,
2013-10-05 14:34:00,54.6,30.0,30.21,SSE,160,16.0,19.0,39,0.00,,,0.00,weatherlink.com 1.10,2013-10-05 20:34:00,
2013-10-05 14:49:00,54.2,30.0,30.21,SSE,161,7.0,19.0,39,0.00,,,0.00,weatherlink.com 1.10,2013-10-05 20:49:00,
2013-10-05 15:04:00,55.6,29.0,30.20,SSE,150,16.0,19.0,37,0.00,,,0.00,weatherlink.com 1.10,2013-10-05 21:04:00,
2013-10-05 15:19:00,55.7,29.0,30.20,SE,129,8.0,22.0,36,0.00,,,0.00,weatherlink.com 1.10,2013-10-05 21:19:00,
2013-10-05 15:34:00,57.8,30.0,30.19,ESE,123,10.0,21.0,35,0.00,,,0.00,weatherlink.com 1.10,2013-10-05 21:34:00,
2013-10-05 15:49:00,58.5,29.0,30.20,SE,139,14.0,24.0,33,0.00,,,0.00,weatherlink.com 1.10,2013-10-05 21:49:00,
2013-10-05 16:04:00,58.9,30.0,30.21,SSE,148,6.0,14.0,34,0.00,,,0.00,weatherlink.com 1.10,2013-10-05 22:04:00,
2013-10-05 16:19:00,58.8,31.0,30.19,SSE,155,5.0,19.0,35,0.00,,,0.00,weatherlink.com 1.10,2013-10-05 22:19:00,
2013-10-05 16:34:00,58.1,30.0,30.20,South,182,7.0,21.0,35,0.00,,,0.00,weatherlink.com 1.10,2013-10-05 22:34:00,
2013-10-05 16:49:00,58.5,31.0,30.21,SSE,153,4.0,10.0,35,0.00,,,0.00,weatherlink.com 1.10,2013-10-05 22:49:00,
2013-10-05 17:04:00,60.1,29.0,30.21,SSE,161,4.0,10.0,31,0.00,,,0.00,weatherlink.com 1.10,2013-10-05 23:04:00,
2013-10-05 17:19:00,59.9,31.0,30.20,SSE,157,4.0,16.0,34,0.00,,,0.00,weatherlink.com 1.10,2013-10-05 23:19:00,
2013-10-05 17:34:00,59.4,31.0,30.19,SE,144,4.0,22.0,34,0.00,,,0.00,weatherlink.com 1.10,2013-10-05 23:34:00,
2013-10-05 17:49:00,58.7,30.0,30.19,South,173,6.0,17.0,34,0.00,,,0.00,weatherlink.com 1.10,2013-10-05 23:49:00,
2013-10-05 18:04:00,58.3,31.0,30.20,SSW,211,1.0,19.0,36,0.00,,,0.00,weatherlink.com 1.10,2013-10-06 00:04:00,
2013-10-05 18:19:00,57.9,31.0,30.20,South,170,1.0,16.0,36,0.00,,,0.00,weatherlink.com 1.10,2013-10-06 00:19:00,
2013-10-05 18:34:00,58.0,30.0,30.20,West,275,1.0,10.0,35,0.00,,,0.00,weatherlink.com 1.10,2013-10-06 00:34:00,
2013-10-05 18:49:00,57.3,30.0,30.19,SE,138,3.0,15.0,36,0.00,,,0.00,weatherlink.com 1.10,2013-10-06 00:49:00,
2013-10-05 19:04:00,56.7,30.0,30.18,SE,130,12.0,14.0,36,0.00,,,0.00,weatherlink.com 1.10,2013-10-06 01:04:00,
2013-10-05 19:19:00,56.2,31.0,30.19,SSE,158,3.0,16.0,38,0.00,,,0.00,weatherlink.com 1.10,2013-10-06 01:19:00,
2013-10-05 19:34:00,56.2,31.0,30.19,SE,132,4.0,17.0,38,0.00,,,0.00,weatherlink.com 1.10,2013-10-06 01:34:00,
2013-10-05 19:50:00,55.4,30.0,30.20,SSE,163,4.0,14.0,38,0.00,,,0.00,weatherlink.com 1.10,2013-10-06 01:50:00,
2013-10-05 20:05:00,55.6,31.0,30.20,SSE,153,6.0,14.0,39,0.00,,,0.00,weatherlink.com 1.10,2013-10-06 02:05:00,
2013-10-05 20:20:00,55.5,31.0,30.20,SSE,161,5.0,12.0,40,0.00,,,0.00,weatherlink.com 1.10,2013-10-06 02:20:00,
2013-10-05 20:35:00,55.1,31.0,30.21,SW,216,1.0,9.0,40,0.00,,,0.00,weatherlink.com 1.10,2013-10-06 02:35:00,
2013-10-05 20:50:00,55.5,31.0,30.21,South,181,2.0,8.0,39,0.00,,,0.00,weatherlink.com 1.10,2013-10-06 02:50:00,
2013-10-05 21:05:00,55.7,30.0,30.22,South,182,0.0,7.0,38,0.00,,,0.00,weatherlink.com 1.10,2013-10-06 03:05:00,
2013-10-05 21:20:00,55.5,31.0,30.21,SSW,192,5.0,9.0,39,0.00,,,0.00,weatherlink.com 1.10,2013-10-06 03:20:00,
2013-10-05 21:35:00,55.0,30.0,30.22,SE,143,10.0,12.0,39,0.00,,,0.00,weatherlink.com 1.10,2013-10-06 03:35:00,
2013-10-05 21:50:00,56.3,29.0,30.21,SSE,157,3.0,7.0,36,0.00,,,0.00,weatherlink.com 1.10,2013-10-06 03:50:00,
2013-10-05 22:05:00,54.6,32.0,30.21,South,169,5.0,15.0,42,0.00,,,0.00,weatherlink.com 1.10,2013-10-06 04:05:00,
2013-10-05 22:20:00,55.1,31.0,30.21,ESE,110,4.0,13.0,40,0.00,,,0.00,weatherlink.com 1.10,2013-10-06 04:20:00,
2013-10-05 22:35:00,54.9,31.0,30.21,SW,227,1.0,12.0,41,0.00,,,0.00,weatherlink.com 1.10,2013-10-06 04:35:00,
2013-10-05 22:50:00,55.2,30.0,30.21,South,184,0.0,11.0,39,0.00,,,0.00,weatherlink.com 1.10,2013-10-06 04:50:00,
2013-10-05 23:05:00,55.3,31.0,30.21,SE,140,10.0,16.0,40,0.00,,,0.00,weatherlink.com 1.10,2013-10-06 05:05:00,
2013-10-05 23:20:00,55.7,30.0,30.21,WSW,239,3.0,14.0,38,0.00,,,0.00,weatherlink.com 1.10,2013-10-06 05:20:00,
2013-10-05 23:35:00,54.4,31.0,30.21,SSE,154,8.0,16.0,41,0.00,,,0.00,weatherlink.com 1.10,2013-10-06 05:35:00,
2013-10-05 23:50:00,54.2,30.0,30.22,South,180,2.0,15.0,40,0.00,,,0.00,weatherlink.com 1.10,2013-10-06 05:50:00,